Regional Weather Roundup
Issued by NWS Glasgow, MT

Home | Current Version | Previous Version | Text Only | Print | Product List | Glossary On
Versions: 1 2 3 4 5 6 7 8 9 10 11 12 13 14 15 16 17 18 19 20 21 22 23 24 25 26 27 28 29 30 31 32 33 34 35 36 37 38 39 40 41 42 43 44 45 46 47 48 49 50
000
ASUS45 KGGW 201015
RWRGGW
HOURLY REGIONAL WEATHER ROUNDUP FOR NORTHEAST MONTANA
NATIONAL WEATHER SERVICE GLASGOW MONTANA
300 AM MST MON NOV 20 2017

NOTE: "FAIR" INDICATES FEW OR NO CLOUDS BELOW 12,000 FEET WITH NO
SIGNIFICANT WEATHER AND/OR OBSTRUCTIONS TO VISISBILITY.

NORTHEAST MONTANA


CITY           SKY/WX    TMP DP  RH WIND       PRES   REMARKS
GLASGOW        CLOUDY    50  17  27 W18G25    29.41S
PLENTYWOOD       N/A     30  22  72 E6          N/A
WOLF POINT     CLOUDY    34  22  61 SW8       29.42F
JORDAN           N/A     47  19  33 W17       29.47F
WINNETT          N/A     48  15  26 E12G21      N/A
SIDNEY         CLOUDY    32  23  69 SE3       29.45F
GLENDIVE       CLOUDY    41  20  43 SW10      29.48F
SCOBEY           N/A     41  15  35 SW9       29.41S

FORT PECK REPORTS


CITY           SKY/WX    TMP DP  RH WIND       PRES   REMARKS
FORT PECK        N/A     52  17  25 SW18G26     N/A
THE PINES        N/A     54  12  18 SW12G28     N/A

SOUTHEAST MONTANA


CITY           SKY/WX    TMP DP  RH WIND       PRES   REMARKS
BILLINGS       CLOUDY    44  14  29 W18       29.62R
MILES CITY     CLOUDY    40  21  46 W6        29.52F
BAKER          CLOUDY    39  20  46 W10       29.53F
LIVINGSTON     CLOUDY    44  16  32 SW38G60   29.66F

CENTRAL MONTANA


CITY           SKY/WX    TMP DP  RH WIND       PRES   REMARKS
HAVRE          CLOUDY    37  22  54 SW14      29.43S
LEWISTOWN      CLOUDY    47  13  25 SW25G37   29.54S
GREAT FALLS    CLOUDY    48   8  19 SW24G41   29.50F
CUT BANK       PTCLDY    40  21  46 W47G63    29.37F
HELENA         CLOUDY    33  22  63 SE5       29.65R
BUTTE          CLOUDY    25  13  60 VRB5      29.77F
BOZEMAN        CLOUDY    40  17  39 NE3       29.76R

WESTERN MONTANA


CITY           SKY/WX    TMP DP  RH WIND       PRES   REMARKS
MISSOULA       CLOUDY    34  25  69 CALM      29.76R
KALISPELL      NOT AVBL

NORTH DAKOTA


CITY           SKY/WX    TMP DP  RH WIND       PRES   REMARKS
WILLISTON      CLOUDY    30  23  75 SW7       29.44F
DICKINSON      CLOUDY    39  19  44 SW15      29.47F
MINOT          CLOUDY    37  23  56 SW13      29.39F
BISMARCK       CLOUDY    28  20  71 S3        29.51F

SOUTHERN SASKATCHEWAN


CITY           SKY/WX    TMP DP  RH WIND       PRES   REMARKS
REGINA         CLOUDY    32  25  74 SW16      29.27F
MOOSE JAW      CLOUDY    36  27  69 SW16      29.28
ESTEVAN        MOCLDY    30  21  69 SW10      29.35F
SWIFT CURRENT  MOCLDY    37  25  60 W33G40    29.27R




USA.gov is the U.S. government's official web portal to all federal, state and local government web resources and services.